Location: ????????
(55.6333°N, 37.7000°E)
Time: 06:22:53
(UTC+00:00)

Lacrosse 4 Rocket - Pass Details

Date: 19 May 2025
Orbit: 513 x 576 km, 68.0° (Epoch: 23 June)

Event Time Altitude Azimuth Distance (km) Brightness Sun altitude
Rises 18:43:21 0° 248° (WSW) 2,647 5.0 -7.0°
Reaches altitude 10° 18:45:39 10° 258° (WSW) 1,770 4.3 -7.2°
Maximum altitude 18:49:16 34° 325° (NW) 900 3.3 -7.5°
Drops below altitude 10° 18:52:58 10° 31° (NNE) 1,811 4.3 -7.8°
Sets 18:55:21 0° 41° (NE) 2,719 5.1 -8.0°
